Location: Breitenfeld
(46.8500°N, 15.6333°E)
Time: 01:28:42
(UTC+00:00)

CZ-2C R/B - Pass Details

Date: 09 April 2020
Orbit: 639 x 705 km, 98.4° (Epoch: 30 May)

Event Time Altitude Azimuth Distance (km) Brightness Sun altitude
Rises 18:47:56 0° 16° (NNE) 3,083 7.3 -12.1°
Reaches altitude 10° 18:50:14 10° 19° (NNE) 2,152 6.4 -12.4°
Maximum altitude 18:54:55 66° 102° (ESE) 746 3.7 -13.1°
Drops below altitude 10° 18:59:29 10° 185° (S) 2,095 6.0 -13.8°
Sets 19:01:41 0° 188° (S) 2,993 6.9 -14.2°
